Regional Weather Roundup
Issued by NWS

Home | Current Version | Previous Version | Graphics & Text | Print | Product List | Glossary On
Versions: 1 2 3 4 5 6 7 8 9 10 11 12 13 14 15 16 17 18 19 20 21 22 23 24 25 26 27 28 29 30 31 32 33 34 35 36 37 38 39 40 41 42 43 44 45 46 47 48 49 50
000
ASUS45 KBOU 181207
RWRCO

WEATHER ROUNDUP FOR COLORADO
NATIONAL WEATHER SERVICE DENVER/BOULDER CO
500 AM MST THU DEC 18 2014

NOTE: "FAIR" INDICATES FEW OR NO CLOUDS BELOW 12000 FEET WITH NO
SIGNIFICANT WEATHER AND/OR OBSTRUCTIONS TO VISIBILITY.

COZ001>005-013-030-031-181300-
...NORTHWEST COLORADO...

CITY           SKY/WX    TMP DP  RH WIND       PRES   REMARKS
CRAIG          CLOUDY    25  23  92 W5        30.09R FOG     WCI  19
HAYDEN         CLOUDY    23  19  86 CALM      30.07R
MEEKER         CLOUDY    25  23  92 CALM      30.07R FOG
MOUNT WERNER   NOT AVBL
STEAMBOAT SPGS CLOUDY    25  24  96 CALM      30.06R
WALDEN         CLOUDY     5   1  85 CALM      30.02S VSB 1/2
$$

COZ006>008-011-181300-
...WEST CENTRAL VALLEYS...

CITY           SKY/WX    TMP DP  RH WIND       PRES   REMARKS
GRAND JUNCTION LGT SNOW  32  32 100 N6        30.08S FOG     WCI  26
MONTROSE       CLOUDY    32  32 100 SE5       30.09S FOG     WCI  27
EAGLE          CLOUDY    25  25 100 CALM      30.08S
RIFLE          CLOUDY    32  31  96 W5        30.06S FOG     WCI  27
DELTA          LGT RAIN  35  35  99 CALM      30.09R
NUCLA          LGT SNOW  32  32 100 CALM      30.12R VSB 1
$$

COZ017>023-064>068-181300-
...SOUTHWEST COLORADO...

CITY           SKY/WX    TMP DP  RH WIND       PRES   REMARKS
DURANGO        CLOUDY    28  26  92 CALM      30.08S
CORTEZ         CLOUDY    33  32  96 CALM      30.09F
PAGOSA SPRINGS FLURRIES  29  28  96 SW6       30.07S WCI  23
TELLURIDE      LGT SNOW  22  22  98 CALM      30.06S
WOLF CREEK PAS SNOW      12  12 100 MISG      30.03R VSB 1/2
$$

COZ009-010-012-014-032>034-037-058>063-181300-
...CENTRAL COLORADO...

CITY           SKY/WX    TMP DP  RH WIND       PRES   REMARKS
ASPEN          LGT SNOW  24  20  84 S6        30.02S FOG     WCI  17
BUENA VISTA    PTCLDY    18  13  78 CALM      30.02R
COPPER MTN     LGT SNOW  18  12  79 W20       29.99S WCI   1
BERTHOUD PASS  CLOUDY     9   3  78 MISG      29.98R
COTTONWOOD PAS PTCLDY    27  18  69 N3        30.00R
GUNNISON       CLOUDY    21  18  86 CALM      30.08R
KREMMLING      CLOUDY    18  12  79 CALM      30.07R
LEADVILLE      CLOUDY    11   7  84 NE8       29.99R WCI  -1
MONARCH PASS   CLOUDY    14  12  92 MISG      30.08F
SALIDA         CLEAR     25  19  80 N12       30.09S WCI  14
SUNLIGHT       LGT SNOW N/A N/A N/A CALM      30.03S
WILKERSON PASS MOCLDY    14  12  92 W6        30.00R FOG     WCI   5
$$

COZ069>075-181300-
...SAN LUIS VALLEY/SANGRE DE CRISTO MOUNTAINS...

CITY           SKY/WX    TMP DP  RH WIND       PRES   REMARKS
ALAMOSA        CLOUDY    24  22  91 CALM      30.06R
LA VETA PASS   CLOUDY    21  18  86 MISG      30.00R FOG
SAGUACHE       PTCLDY    19  18  93 N6        30.06R WCI  11
$$

COZ035-036-038>040-181300-
...NORTHERN COLORADO FRONT RANGE...

CITY           SKY/WX    TMP DP  RH WIND       PRES   REMARKS
DENVER INTL AP MOCLDY    28  24  85 CALM      29.98R
DMNS CITY PARK   N/A     26  24  93 SW1       29.98S
AURORA         PTCLDY    29  28  99 SW6       29.98R WCI  22
FRONT RANGE AP MOCLDY    30  28  93 CALM      29.99R
ERIE MUNI ARPT   N/A     19  17  95 S3        29.99S
BOULDER MUN AP MOCLDY    28  27  93 CALM      29.97S
CENTENNIAL     MOCLDY    28  26  92 S7        29.97S WCI  21
BROOMFIELD     MOCLDY    30  23  74 NW3       29.98R
FORT COLLINS   PTCLDY    23  19  86 CALM      30.00S
LONGMONT       PTCLDY    20  18  89 CALM      30.00S
$$

COZ041-046-047-076>085-087-088-181300-
...PIKES PEAK/PALMER DIVIDE AND SOUTHERN FOOTHILLS...

CITY           SKY/WX    TMP DP  RH WIND       PRES   REMARKS
COLO. SPRINGS  MOCLDY    27  25  92 N6        30.00R WCI  20
A. F. ACADEMY  CLOUDY    29  28  99 CALM      29.98S
ELLICOTT       NOT AVBL
FALCON         PTCLDY    25  24  96 W5        29.99S WCI  19
FORT CARSON    PTCLDY    24  23  99 N5        29.98S WCI  18
LIMON          MOCLDY    21  19  92 N5        29.99S WCI  15
MONUMENT HILL  MOCLDY    25  23  93 SW3       29.96S
TRINIDAD       CLEAR     24  19  81 W7        30.01R WCI  16
$$

COZ042>045-048>051-090-091-181300-
...NORTHEAST COLORADO...

CITY           SKY/WX    TMP DP  RH WIND       PRES   REMARKS
GREELEY ARPT   PTCLDY    16   7  67 CALM      29.99S
AKRON          PTCLDY    20  18  92 W13       29.99R FOG     WCI   7
BURLINGTON     FOG       20  18  92 SW6       30.01R VSB 1/4 WCI  12
WRAY           CLOUDY   N/A N/A N/A CALM      30.03R
STERLING       MOCLDY    14  12  92 SW3       30.01S
HOLYOKE        NOT AVBL
FORT MORGAN    PTCLDY    13  11  91 W9        30.00S WCI   1
$$

COZ086-089-092>099-181300-
...SOUTHEAST COLORADO...

CITY           SKY/WX    TMP DP  RH WIND       PRES   REMARKS
PUEBLO         CLEAR     18  17  96 NW3       30.01
LA JUNTA       PTCLDY    26  23  88 W10       30.02S WCI  16
LAMAR          CLOUDY    29  27  92 NW8       30.03R WCI  21
SPRINGFIELD      N/A     26  25  96 N10       30.01R WCI  16
$$



USA.gov is the U.S. government's official web portal to all federal, state and local government web resources and services.